Weather History for Aberdeen / Amory, MS

Change the Weather History Date:

Thursday, April 25, 2013

  Actual Average (KCBM) Record (KCBM)
Temperature  
Mean Temperature 54 °F -  
Max Temperature 71 °F 73 °F 85 °F (2012)
Min Temperature 37 °F 52 °F 39 °F (2005)
Degree Days  
Heating Degree Days 11    
Growing Degree Days 4 (Base 50)    
Moisture  
Dew Point 43 °F    
Average Humidity 66    
Maximum Humidity 93    
Minimum Humidity 52    
Precipitation  
Precipitation 0.00 in - - ()
Sea Level Pressure  
Sea Level Pressure 30.34 in    
Wind  
Wind Speed 5 mph (NNE)    
Max Wind Speed 12 mph    
Max Gust Speed -    
Visibility 8 miles    
Events      
Averages and records for this station are not official NWS values.
T = Trace of Precipitation, MM = Missing Value Source: NWS Daily Summary

Daily Weather History Graph

Daily Weather History Graph

Search for Another Location

Airport:

Trip Planner

Search our weather history database for the weather conditions in past years. The results will help you decide how hot, cold, wet, or windy it might be!

Date:

Astronomy

Apr. 25, 2013 Rise Set
Actual Time 6:11 AM CDT 7:33 PM CDT
Civil Twilight 5:44 AM CDT 7:59 PM CDT
Nautical Twilight 5:13 AM CDT 8:30 PM CDT
Astronomical Twilight 4:40 AM CDT 9:03 PM CDT
Moon 7:44 PM CDT (4/25) 5:53 AM CDT (4/25)
Length of Visible Light 14h 14m
Length of Day
13h 21m
Full, 100% of the Moon is Illuminated
Apr 25
Full
Apr 25
Full
May 2
Last Quarter
May 9
New
May 17
First Quarter

Hourly Weather History & Observations

Time (CDT) Temp. Windchill Dew Point Humidity Pressure Visibility Wind Dir Wind Speed Gust Speed Precip Events Conditions
12:15 AM 48.2 °F - 33.8 °F 58% 30.30 in 10.0 mi NNE 6.9 mph - N/A   Overcast
12:35 AM 48.2 °F - 33.8 °F 58% 30.30 in 10.0 mi NNE 8.1 mph - N/A   Overcast
12:55 AM 48.2 °F - 32.0 °F 54% 30.30 in 10.0 mi NNE 10.4 mph - N/A   Overcast
1:15 AM 48.2 °F - 33.8 °F 58% 30.30 in 10.0 mi NNE 6.9 mph - N/A   Overcast
1:35 AM 48.2 °F - 32.0 °F 54% 30.29 in 10.0 mi NE 8.1 mph - N/A   Overcast
1:55 AM 46.4 °F 41.9 °F 32.0 °F 57% 30.29 in 10.0 mi NE 9.2 mph - N/A   Overcast
2:15 AM 46.4 °F 45.2 °F 32.0 °F 57% 30.29 in 10.0 mi NNE 3.5 mph - N/A   Mostly Cloudy
2:35 AM 44.6 °F 43.1 °F 30.2 °F 57% 30.29 in 10.0 mi NNE 3.5 mph - N/A   Partly Cloudy
2:55 AM 42.8 °F - 30.2 °F 61% 30.29 in 9.0 mi Calm Calm - N/A   Clear
3:15 AM 41.0 °F - 30.2 °F 65% 30.29 in 7.0 mi Calm Calm - N/A   Clear
3:35 AM 41.0 °F - 32.0 °F 70% 30.30 in 7.0 mi Calm Calm - N/A   Clear
3:55 AM 41.0 °F 39.0 °F 39.2 °F 93% 30.30 in 8.0 mi NNE 3.5 mph - N/A   Clear
4:15 AM 41.0 °F 39.0 °F 39.2 °F 93% 30.31 in 8.0 mi North 3.5 mph - N/A   Clear
4:35 AM 41.0 °F - 37.4 °F 87% 30.32 in 8.0 mi Calm Calm - N/A   Clear
4:55 AM 39.2 °F - 37.4 °F 93% 30.32 in 5.0 mi Calm Calm - N/A   Clear
5:15 AM 39.2 °F 37.0 °F 35.6 °F 87% 30.33 in 5.0 mi North 3.5 mph - N/A   Clear
5:35 AM 39.2 °F - 35.6 °F 87% 30.33 in 3.0 mi Calm Calm - N/A   Clear
5:55 AM 37.4 °F - 33.8 °F 87% 30.34 in 2.5 mi Calm Calm - N/A   Clear
6:15 AM 39.2 °F - 35.6 °F 87% 30.35 in 1.8 mi Calm Calm - N/A   Clear
6:35 AM 37.4 °F - 33.8 °F 87% 30.35 in 2.0 mi Calm Calm - N/A   Clear
6:55 AM 39.2 °F - 35.6 °F 87% 30.36 in 2.0 mi Calm Calm - N/A   Clear
7:15 AM 42.8 °F 41.1 °F 37.4 °F 81% 30.37 in 3.0 mi North 3.5 mph - N/A   Clear
7:35 AM 42.8 °F 38.6 °F 37.4 °F 81% 30.38 in 4.0 mi North 6.9 mph - N/A   Haze
7:55 AM 44.6 °F 43.1 °F 39.2 °F 81% 30.38 in 5.0 mi North 3.5 mph - N/A   Haze
8:15 AM 46.4 °F 43.5 °F 39.2 °F 76% 30.38 in 7.0 mi North 5.8 mph - N/A   Clear
8:35 AM 48.2 °F - 41.0 °F 76% 30.39 in 8.0 mi NE 6.9 mph - N/A   Clear
8:55 AM 51.8 °F - 42.8 °F 71% 30.39 in 9.0 mi NE 3.5 mph - N/A   Clear
9:15 AM 53.6 °F - 44.6 °F 72% 30.40 in 8.0 mi NE 6.9 mph - N/A   Clear
9:35 AM 55.4 °F - 44.6 °F 67% 30.40 in 9.0 mi NE 8.1 mph - N/A   Clear
9:55 AM 57.2 °F - 46.4 °F 67% 30.40 in 9.0 mi NNE 11.5 mph - N/A   Clear
10:15 AM 57.2 °F - 46.4 °F 67% 30.40 in 9.0 mi NE 9.2 mph - N/A   Clear
10:35 AM 60.8 °F - 46.4 °F 59% 30.40 in 10.0 mi North 11.5 mph - N/A   Clear
10:55 AM 60.8 °F - 48.2 °F 63% 30.40 in 9.0 mi NNE 10.4 mph - N/A   Clear
11:15 AM 62.6 °F - 48.2 °F 59% 30.40 in 10.0 mi North 9.2 mph - N/A   Clear
11:35 AM 64.4 °F - 46.4 °F 52% 30.40 in 10.0 mi NE 3.5 mph - N/A   Clear
11:55 AM 64.4 °F - 48.2 °F 56% 30.39 in 10.0 mi North 9.2 mph - N/A   Clear
12:15 PM 64.4 °F - 48.2 °F 56% 30.39 in 9.0 mi North 9.2 mph - N/A   Clear
12:35 PM 66.2 °F - 50.0 °F 56% 30.38 in 9.0 mi North 8.1 mph - N/A   Clear
12:55 PM 66.2 °F - 51.8 °F 60% 30.38 in 8.0 mi NE 6.9 mph - N/A   Clear
1:15 PM 68.0 °F - 51.8 °F 56% 30.37 in 10.0 mi NE 3.5 mph - N/A   Clear
1:35 PM 69.8 °F - 53.6 °F 56% 30.37 in 10.0 mi NE 4.6 mph - N/A   Clear
1:55 PM 69.8 °F - 53.6 °F 56% 30.37 in 9.0 mi NNE 8.1 mph - N/A   Clear
2:15 PM 71.6 °F - 53.6 °F 53% 30.36 in 10.0 mi NE 8.1 mph - N/A   Clear
2:35 PM 71.6 °F - 53.6 °F 53% 30.35 in 9.0 mi North 10.4 mph - N/A   Clear
2:55 PM 71.6 °F - 55.4 °F 57% 30.35 in 9.0 mi NNE 8.1 mph - N/A   Clear
3:15 PM 71.6 °F - 55.4 °F 57% 30.34 in 10.0 mi North 8.1 mph - N/A   Clear
3:35 PM 71.6 °F - 55.4 °F 57% 30.33 in 9.0 mi NE 8.1 mph - N/A   Clear
3:55 PM 71.6 °F - 55.4 °F 57% 30.33 in 10.0 mi North 9.2 mph - N/A   Clear
4:15 PM 71.6 °F - 55.4 °F 57% 30.32 in 9.0 mi NNE 9.2 mph - N/A   Clear
4:35 PM 71.6 °F - 55.4 °F 57% 30.31 in 10.0 mi ENE 5.8 mph - N/A   Clear
4:55 PM 71.6 °F - 55.4 °F 57% 30.32 in 10.0 mi NNE 5.8 mph - N/A   Clear
5:15 PM 71.6 °F - 55.4 °F 57% 30.32 in 9.0 mi NE 6.9 mph - N/A   Clear
5:35 PM 71.6 °F - 53.6 °F 53% 30.31 in 9.0 mi NNE 9.2 mph - N/A   Clear
5:55 PM 69.8 °F - 53.6 °F 56% 30.32 in 9.0 mi NE 5.8 mph - N/A   Clear
6:15 PM 69.8 °F - 53.6 °F 56% 30.32 in 9.0 mi Calm Calm - N/A   Clear
6:35 PM 69.8 °F - 51.8 °F 53% 30.31 in 10.0 mi NNE 4.6 mph - N/A   Clear
6:55 PM 66.2 °F - 50.0 °F 56% 30.32 in 10.0 mi NE 3.5 mph - N/A   Clear
7:15 PM 64.4 °F - 46.4 °F 52% 30.32 in 10.0 mi Calm Calm - N/A   Clear
7:35 PM 57.2 °F - 44.6 °F 63% 30.32 in 10.0 mi Calm Calm - N/A   Clear
7:55 PM 53.6 °F - 42.8 °F 67% 30.32 in 10.0 mi Calm Calm - N/A   Clear
8:15 PM 51.8 °F - 42.8 °F 71% 30.32 in 10.0 mi Calm Calm - N/A   Clear
8:35 PM 50.0 °F - 39.2 °F 66% 30.32 in 10.0 mi Calm Calm - N/A   Clear
8:55 PM 48.2 °F - 39.2 °F 71% 30.33 in 9.0 mi Calm Calm - N/A   Clear
9:15 PM 48.2 °F - 39.2 °F 71% 30.34 in 10.0 mi Calm Calm - N/A   Clear
9:35 PM 48.2 °F - 39.2 °F 71% 30.35 in 9.0 mi Calm Calm - N/A   Clear
9:55 PM 46.4 °F - 37.4 °F 71% 30.35 in 7.0 mi Calm Calm - N/A   Clear
10:15 PM 46.4 °F - 37.4 °F 71% 30.35 in 8.0 mi Calm Calm - N/A   Clear
10:35 PM 46.4 °F - 37.4 °F 71% 30.35 in 9.0 mi Calm Calm - N/A   Clear
10:55 PM 44.6 °F - 37.4 °F 76% 30.35 in 4.0 mi Calm Calm - N/A   Haze
11:15 PM 44.6 °F - 35.6 °F 71% 30.35 in 3.0 mi Calm Calm - N/A   Haze
11:35 PM 44.6 °F - 35.6 °F 71% 30.34 in 7.0 mi Calm Calm - N/A   Clear
11:55 PM 44.6 °F - 35.6 °F 71% 30.33 in 5.0 mi Calm Calm - N/A   Haze